Tracking 29781 objects as of 15-Oct-2024
HD Live streaming from Space Station
objects crossing your sky now

SL-8 R/B

Track SL-8 R/B now!
10-day predictions


NORAD ID: 10918
Int'l Code: 1978-053B
Perigee: 956.9 km
Apogee: 1,003.0 km
Inclination: 82.9 °
Period: 104.5 minutes
Semi major axis: 7350 km
RCS: 5.0251 m2 (large)
Launch date: May 23, 1978
Source: Commonwealth of Independent States (former USSR) (CIS)
Launch site: PLESETSK MISSILE AND SPACE COMPLEX (PKMTR)

Note: This is a ROCKET BODY
Your satellite tracking list
Your tracking list is empty




NASA's NSSDC Master Catalog

Two Line Element Set (TLE):
1 10918U 78053B   24288.50481470  .00000272  00000-0  25707-3 0  9990
2 10918  82.9119 129.6805 0031308  77.2516 346.6463 13.77488082330999
Source of the keplerian elements: AFSPC